Location: Limoges
(45.8354°N, 1.2645°E)
Time: 12:34:54
(UTC+01:00)

S-56A Canister/Altair - All Passes

Search period start: 22 February 2024 00:00
Search period end: 03 March 2024 00:00
Orbit: 640 x 2488 km, 38.9° (Epoch: 21 February)

Date Brightness Start Highest point End Pass type
(mag) Time Alt. Az. Time Alt. Az. Time Alt. Az.
22 Feb - 10:32:48 10° S 10:35:56 14° SSE 10:38:40 10° ESE daylight
22 Feb - 12:34:27 10° SW 12:39:00 31° S 12:42:58 10° ESE daylight
22 Feb - 14:37:52 10° WSW 14:41:58 33° S 14:46:09 10° ESE daylight
22 Feb - 16:41:51 10° WSW 16:44:53 17° SSW 16:48:14 10° SSE daylight
23 Feb - 09:59:41 10° S 10:02:43 14° SSE 10:05:22 10° SE daylight
23 Feb - 12:01:05 10° SW 12:05:53 30° SSE 12:09:54 10° ESE daylight
23 Feb - 14:04:36 10° WSW 14:08:53 35° S 14:12:59 10° ESE daylight
23 Feb - 16:08:36 10° WSW 16:11:46 19° SSW 16:15:11 10° SSE daylight
24 Feb - 09:26:35 10° S 09:29:28 13° SSE 09:32:01 10° SE daylight
24 Feb - 11:27:37 10° SW 11:32:44 29° SSE 11:36:51 10° ESE daylight
24 Feb - 13:31:16 10° WSW 13:35:48 36° S 13:39:54 10° ESE daylight
24 Feb - 15:35:19 10° WSW 15:38:39 20° SSW 15:42:09 10° SSE daylight
25 Feb - 08:53:32 10° S 08:56:11 12° SSE 08:58:34 10° SE daylight
25 Feb - 10:54:07 10° SW 10:59:34 28° SSE 11:03:49 10° ESE daylight
25 Feb - 12:57:51 10° WSW 13:02:42 37° S 13:06:51 10° ESE daylight
25 Feb - 15:02:00 10° WSW 15:05:34 22° SSW 15:09:09 10° SSE daylight
26 Feb - 08:20:35 10° SSE 08:22:53 11° SSE 08:24:58 10° SE daylight
26 Feb - 10:20:32 10° SW 10:26:21 28° SSE 10:30:47 10° ESE daylight
26 Feb - 12:24:20 10° WSW 12:29:34 38° S 12:33:50 10° ESE daylight
26 Feb - 14:28:37 10° WSW 14:32:29 25° SSW 14:36:10 10° SE daylight
27 Feb - 07:47:56 10° SSE 07:49:32 11° SSE 07:51:03 10° SE daylight
27 Feb - 09:46:55 10° SW 09:53:06 27° SSE 09:57:45 10° ESE daylight
27 Feb - 11:50:45 10° WSW 11:56:26 39° S 12:00:50 10° ESE daylight
27 Feb - 13:55:11 10° WSW 13:59:24 28° SSW 14:03:13 10° SE daylight
28 Feb - 09:13:15 10° SSW 09:19:48 26° SSE 09:24:42 10° ESE daylight
28 Feb - 11:17:04 10° WSW 11:23:15 40° S 11:27:53 10° ESE daylight
28 Feb - 13:21:40 10° WSW 13:26:18 31° SSW 13:30:18 10° SE daylight
28 Feb - 15:28:10 10° SW 15:28:53 10° SSW 15:29:36 10° SSW daylight
29 Feb - 08:39:32 10° SSW 08:46:28 26° SSE 08:51:38 10° ESE daylight
29 Feb - 10:43:19 10° WSW 10:50:02 41° S 10:54:54 10° ESE daylight
29 Feb - 12:48:05 10° WSW 12:53:12 34° SSW 12:57:23 10° SE daylight
29 Feb - 14:53:46 10° WSW 14:55:47 13° SSW 14:57:45 10° S daylight
01 Mar - 08:05:49 10° SSW 08:13:04 25° SSE 08:18:30 10° ESE daylight
01 Mar - 10:09:28 10° WSW 10:16:47 41° S 10:21:57 10° ESE daylight
01 Mar - 12:14:24 10° WSW 12:20:04 38° SSW 12:24:28 10° SE daylight
01 Mar - 14:19:52 10° WSW 14:22:42 15° SSW 14:25:22 10° S daylight
02 Mar - 07:32:05 10° SSW 07:39:38 24° SSE 07:45:20 10° ESE daylight
02 Mar - 09:35:34 10° SW 09:43:28 41° S 09:48:58 10° ESE daylight
02 Mar - 11:40:39 10° WSW 11:46:55 41° S 11:51:34 10° ESE daylight
02 Mar - 13:46:04 10° WSW 13:49:38 18° SSW 13:52:49 10° SSE daylight
